Location: Conjunto Novo Dom Bosco
(19.9173°S, 44.0086°W)
Time: 08:10:35
(UTC+00:00)

Daily predictions for brighter satellites

Satellite Brightness Start Highest point End
(mag) Time Altitude Azimuth Time Altitude Azimuth Time Altitude Azimuth
Cosmos 1842 3.2 20:45:59 10° S 20:49:52 68° E 20:53:40 10° NNE
Lacrosse 4 Rocket 3.4 20:46:16 10° SW 20:50:19 36° WNW 20:54:14 10° N
Cosmos 405 Rocket 4.0 20:50:02 10° SSE 20:53:00 21° E 20:55:58 10° NE
AQUARIUS 4.4 20:49:09 10° SSE 20:53:32 48° E 20:57:52 10° N
NOSS 3-1 (C) 4.5 20:45:49 10° NNW 20:55:05 88° ENE 21:03:53 10° SSE
ARGOS 3.8 20:52:09 10° SE 20:57:02 35° E 21:01:53 10° NNE
Cosmos 1943 3.2 20:52:16 10° SSW 20:58:00 79° ESE 21:03:41 10° NNE
COSMO-SKYMED 1 4.4 20:54:02 10° NNW 20:58:02 37° W 21:02:05 10° SSW
Okean 1-7 4.4 20:56:19 10° SSW 21:00:29 44° W 21:04:34 10° NNW
Meteor 1-4 Rocket 2.5 20:57:58 10° N 21:01:34 70° E 21:05:08 10° SSE
OAO 3 Rocket 4.3 20:57:47 10° SW 21:01:43 25° SSE 21:05:26 11° ESE
deb Centaur AC-2 3.9 20:58:17 10° WSW 21:02:40 69° SSE 21:07:02 10° ENE
ADEOS 4.0 20:59:38 10° S 21:04:51 68° WSW 21:10:01 10° NNW
Cosmos 1603 3.7 21:00:51 10° SSW 21:06:30 81° ESE 21:12:08 10° NNE
Delta 2 Rocket 4.2 21:00:17 10° WSW 21:07:18 59° S 21:13:10 11° E
CZ-4C R/B 3.3 20:58:28 10° NNW 21:07:20 86° WSW 21:15:28 10° SSE
CZ-4C R/B 4.5 21:05:05 10° ENE 21:07:29 18° ESE 21:09:54 10° SSE
NOSS 3-1 (A) 4.5 20:59:57 10° NNW 21:09:01 64° ENE 21:17:42 10° SE
Cosmos 1627 Rocket 4.5 21:02:51 10° N 21:09:09 76° E 21:15:26 10° S
H-2A R/B 2.4 21:07:03 10° S 21:12:18 72° WSW 21:17:39 10° NNW
In-Cosmos 22 4.2 21:07:20 10° S 21:12:45 58° E 21:17:59 10° NNE
USA 281 4.4 21:10:12 12° ESE 21:14:17 20° ENE 21:18:55 10° NNE
Cosmos 1674 3.4 21:11:04 10° SSE 21:14:31 32° E 21:17:55 10° NNE
GPS 2-15 Rocket1 3.2 21:11:19 10° W 21:16:11 83° N 21:20:11 16° E
CZ-2D R/B 3.7 21:14:51 10° S 21:18:42 63° WSW 21:22:30 10° NNW
Cosmos 1607 3.9 21:12:29 10° SSW 21:18:52 68° ESE 21:25:08 10° NNE
SJ-11-01 4.5 21:14:22 10° SSE 21:18:57 52° E 21:23:32 10° N
Cosmos 2026 Rocket 4.1 21:13:00 10° N 21:19:19 89° W 21:25:35 10° S
Cosmos 1733 Rocket 3.4 21:16:50 10° NNW 21:21:07 66° W 21:25:27 10° S
Cosmos 1626 2.5 21:21:33 10° SSE 21:25:01 37° E 21:28:25 10° NNE
SL-19 R/B 4.4 21:22:12 10° NNE 21:28:21 80° ESE 21:34:08 10° SSW
ASC 2 Rocket 3.4 21:24:42 10° WSW 21:28:39 49° S 21:31:11 23° ESE
Okean 2 3.4 21:24:46 10° S 21:28:50 54° E 21:32:52 10° NNE
H-2A R/B 1.5 21:27:19 10° W 21:31:35 35° SSW 21:32:27 25° SSE
Cosmos 1805 3.7 21:37:53 10° NNW 21:41:42 62° W 21:45:33 10° S
Meteor 2-10 4.1 21:36:48 10° N 21:42:13 75° E 21:47:53 10° S
Landsat 5 4.1 21:39:56 10° N 21:43:48 54° W 21:47:37 10° SSW
Cosmos 1048 Rocket 4.2 21:40:44 10° N 21:45:47 50° E 21:48:17 28° SE
GPS 2-12 Rocket1 4.2 21:43:23 10° NW 21:47:31 33° NNE 21:49:18 25° ENE
BREEZE-M DEB (TANK) 4.3 21:41:01 10° NNW 21:51:57 39° NE 21:53:18 32° ENE
GPS 2-18 Rocket1 2.8 21:50:45 10° W 21:54:28 89° S 21:54:55 68° E
Cosmos 1371 Rocket 4.3 21:51:14 10° S 21:57:39 33° ENE 22:00:59 10° NE
FUSE 3.9 21:52:34 10° WSW 21:57:54 68° SSE 21:59:24 46° ESE
Iridium 51 4.3 21:55:02 14° S 21:58:21 84° W 22:02:33 10° N
Cosmos 1782 Rocket 3.8 21:58:43 10° N 22:02:30 48° ENE 22:02:30 48° ENE
Cosmos 1378 Rocket 3.4 22:02:46 24° S 22:05:26 77° E 22:09:52 10° N
PSLV R/B 4.3 22:03:48 28° SSW 22:05:32 55° WSW 22:09:09 10° NNW
Cosmos 2266 Rocket 4.0 21:59:58 10° N 22:05:59 58° E 22:08:28 35° SSE
USA 267 3.7 22:01:35 10° NNE 22:08:02 62° NW 22:14:32 10° SW
Cosmos 1908 Rocket 4.2 22:04:19 10° NNW 22:08:42 57° W 22:11:52 18° S
Cosmos 1674 Rocket 3.5 22:10:57 26° S 22:13:23 78° W 22:17:40 10° N
Cosmos 724 4.3 22:07:59 10° SSW 22:14:03 82° WNW 22:19:57 10° NNE
CZ-4 R/B 3.7 22:18:33 14° NNE 22:18:33 14° NNE 22:19:17 10° N
Meteor 1-15 Rocket 4.3 22:10:59 10° N 22:16:51 79° W 22:20:28 24° S
Spot 3 4.5 22:19:16 63° SSE 22:20:08 80° ENE 22:25:30 10° N
Cosmos 2278 Rocket 2.5 22:19:22 10° NNW 22:24:57 65° WSW 22:26:52 41° S
GPS 2-04 Rocket1 4.0 22:23:17 10° NW 22:25:43 37° NW 22:25:43 37° NW
Okean O Rocket 2.7 22:31:42 36° NNW 22:31:42 36° NNW 22:34:19 10° NNW
Cosmos 1726 4.3 22:29:54 10° NW 22:32:47 23° W 22:33:14 22° WSW
Cosmos 1417 Rocket 4.3 22:35:49 79° NE 22:35:49 79° NE 22:41:36 10° N
Cosmos 1655 Rocket 4.4 22:40:01 10° NNW 22:46:16 61° W 22:48:35 39° SSW
Cosmos 1943 Rocket 4.3 22:47:37 10° N 22:48:29 15° N 22:48:29 15° N
CZ-4B R/B 4.4 22:56:18 36° SW 22:57:09 38° WSW 23:02:14 10° NW
USA 281 3.9 22:57:05 39° SSW 22:58:43 47° WSW 23:04:55 10° NW
